Time,TemperatureF,DewpointF,PressureIn,WindDirection,WindDirectionDegrees,WindSpeedMPH,WindSpeedGustMPH,Humidity,HourlyPrecipIn,Conditions,Clouds,dailyrainin,SoftwareType,DateUTC
2013-06-28 00:00:00,87.6,61.0,29.82,SSE,150,0.0,0.0,41,0.00,,,0.00,VWS V15.00,2013-06-28 05:00:00,
2013-06-28 00:02:00,86.5,65.7,29.86,SW,217,8.0,11.0,50,0.00,,,0.00,VWS V13.01,2013-06-28 05:02:00,
2013-06-28 00:07:00,86.2,66.0,29.86,SSE,155,0.0,9.0,51,0.00,,,0.00,VWS V13.01,2013-06-28 05:07:00,
2013-06-28 00:10:00,87.7,60.4,29.82,SSE,148,0.0,0.0,40,0.00,,,0.00,VWS V15.00,2013-06-28 05:10:00,
2013-06-28 00:12:00,86.0,66.3,29.86,SSE,161,0.0,0.0,52,0.00,,,0.00,VWS V13.01,2013-06-28 05:12:00,
2013-06-28 00:17:00,85.8,66.7,29.87,SSE,162,0.0,0.0,53,0.00,,,0.00,VWS V13.01,2013-06-28 05:17:00,
2013-06-28 00:20:00,88.0,60.7,29.83,SE,146,0.0,0.0,40,0.00,,,0.00,VWS V15.00,2013-06-28 05:20:00,
2013-06-28 00:22:00,85.7,66.6,29.87,SSE,162,0.0,0.0,53,0.00,,,0.00,VWS V13.01,2013-06-28 05:22:00,
2013-06-28 00:27:00,85.6,67.1,29.87,SSE,162,0.0,0.0,54,0.00,,,0.00,VWS V13.01,2013-06-28 05:27:00,
2013-06-28 00:30:00,87.8,61.9,29.84,SSE,150,0.0,8.0,42,0.00,,,0.00,VWS V15.00,2013-06-28 05:30:00,
2013-06-28 00:32:00,85.5,67.0,29.88,SSE,161,0.0,0.0,54,0.00,,,0.00,VWS V13.01,2013-06-28 05:32:00,
2013-06-28 00:37:00,85.4,67.4,29.88,SSE,162,0.0,0.0,55,0.00,,,0.00,VWS V13.01,2013-06-28 05:37:00,
2013-06-28 00:40:00,87.6,63.0,29.84,SSE,159,4.0,9.0,44,0.00,,,0.00,VWS V15.00,2013-06-28 05:40:00,
2013-06-28 00:42:00,85.1,67.1,29.88,SSE,161,0.0,0.0,55,0.00,,,0.00,VWS V13.01,2013-06-28 05:42:00,
2013-06-28 00:47:00,84.9,67.5,29.88,SSE,162,0.0,0.0,56,0.00,,,0.00,VWS V13.01,2013-06-28 05:47:00,
2013-06-28 00:50:00,87.1,64.4,29.86,South,187,0.0,8.0,47,0.00,,,0.00,VWS V15.00,2013-06-28 05:50:00,
2013-06-28 00:52:00,84.7,67.8,29.88,SSE,162,0.0,0.0,57,0.00,,,0.00,VWS V13.01,2013-06-28 05:52:00,
2013-06-28 00:57:00,84.5,68.1,29.88,SSE,161,0.0,0.0,58,0.00,,,0.00,VWS V13.01,2013-06-28 05:57:00,
2013-06-28 01:00:00,86.5,65.7,29.86,SW,217,8.0,11.0,50,0.00,,,0.00,VWS V15.00,2013-06-28 06:00:00,
2013-06-28 01:02:00,84.2,68.8,29.88,South,172,0.0,5.0,60,0.00,,,0.00,VWS V13.01,2013-06-28 06:02:00,
2013-06-28 01:07:00,83.9,68.5,29.88,South,186,0.0,7.0,60,0.00,,,0.00,VWS V13.01,2013-06-28 06:07:00,
2013-06-28 01:10:00,86.0,66.3,29.86,SSE,161,0.0,9.0,52,0.00,,,0.00,VWS V15.00,2013-06-28 06:10:00,
2013-06-28 01:12:00,83.8,68.9,29.88,SSW,197,5.0,5.0,61,0.00,,,0.00,VWS V13.01,2013-06-28 06:12:00,
2013-06-28 01:17:00,83.7,69.3,29.88,SSW,202,0.0,8.0,62,0.00,,,0.00,VWS V13.01,2013-06-28 06:17:00,
2013-06-28 01:20:00,85.7,66.6,29.87,SSE,162,0.0,0.0,53,0.00,,,0.00,VWS V15.00,2013-06-28 06:20:00,
2013-06-28 01:22:00,83.6,69.2,29.88,SSW,202,0.0,0.0,62,0.00,,,0.00,VWS V13.01,2013-06-28 06:22:00,
2013-06-28 01:27:00,83.4,69.5,29.88,South,188,0.0,0.0,63,0.00,,,0.00,VWS V13.01,2013-06-28 06:27:00,
2013-06-28 01:30:00,85.5,67.0,29.88,SSE,162,0.0,0.0,54,0.00,,,0.00,VWS V15.00,2013-06-28 06:30:00,
2013-06-28 01:32:00,83.4,69.5,29.88,South,188,0.0,0.0,63,0.00,,,0.00,VWS V13.01,2013-06-28 06:32:00,
2013-06-28 01:37:00,83.3,69.9,29.88,South,188,0.0,0.0,64,0.00,,,0.00,VWS V13.01,2013-06-28 06:37:00,
2013-06-28 01:40:00,85.1,67.1,29.88,SSE,162,0.0,0.0,55,0.00,,,0.00,VWS V15.00,2013-06-28 06:40:00,
2013-06-28 01:42:00,83.2,69.8,29.88,South,188,0.0,0.0,64,0.00,,,0.00,VWS V13.01,2013-06-28 06:42:00,
2013-06-28 01:47:00,83.0,70.0,29.88,South,188,0.0,0.0,65,0.00,,,0.00,VWS V13.01,2013-06-28 06:47:00,
2013-06-28 01:50:00,84.8,67.9,29.88,SSE,161,0.0,0.0,57,0.00,,,0.00,VWS V15.00,2013-06-28 06:50:00,
2013-06-28 01:52:00,82.9,69.9,29.88,South,188,0.0,0.0,65,0.00,,,0.00,VWS V13.01,2013-06-28 06:52:00,
2013-06-28 01:57:00,82.8,69.8,29.88,South,188,0.0,0.0,65,0.00,,,0.00,VWS V13.01,2013-06-28 06:57:00,
2013-06-28 02:00:00,84.2,68.8,29.88,South,173,5.0,5.0,60,0.00,,,0.00,VWS V15.00,2013-06-28 07:00:00,
2013-06-28 02:02:00,82.7,69.8,29.88,South,186,0.0,0.0,65,0.00,,,0.00,VWS V13.01,2013-06-28 07:02:00,
2013-06-28 02:07:00,82.7,70.2,29.88,South,186,0.0,0.0,66,0.00,,,0.00,VWS V13.01,2013-06-28 07:07:00,
2013-06-28 02:10:00,83.8,68.9,29.88,SSW,199,0.0,7.0,61,0.00,,,0.00,VWS V15.00,2013-06-28 07:10:00,
2013-06-28 02:12:00,82.5,70.0,29.88,South,179,0.0,0.0,66,0.00,,,0.00,VWS V13.01,2013-06-28 07:12:00,
2013-06-28 02:17:00,82.4,69.9,29.87,SSE,156,6.0,6.0,66,0.00,,,0.00,VWS V13.01,2013-06-28 07:17:00,
2013-06-28 02:20:00,83.6,69.2,29.88,SSW,202,0.0,8.0,62,0.00,,,0.00,VWS V15.00,2013-06-28 07:20:00,
2013-06-28 02:22:00,82.3,70.3,29.87,SSE,157,4.0,5.0,67,0.00,,,0.00,VWS V13.01,2013-06-28 07:22:00,
2013-06-28 02:27:00,82.2,70.2,29.87,SSE,158,2.0,8.0,67,0.00,,,0.00,VWS V13.01,2013-06-28 07:27:00,
2013-06-28 02:30:00,83.3,69.4,29.88,South,188,0.0,0.0,63,0.00,,,0.00,VWS V15.00,2013-06-28 07:30:00,
2013-06-28 02:32:00,82.1,70.1,29.87,SSE,157,0.0,6.0,67,0.00,,,0.00,VWS V13.01,2013-06-28 07:32:00,
2013-06-28 02:37:00,82.0,70.4,29.87,SSE,166,0.0,6.0,68,0.00,,,0.00,VWS V13.01,2013-06-28 07:37:00,
2013-06-28 02:40:00,83.2,69.8,29.88,South,188,0.0,0.0,64,0.00,,,0.00,VWS V15.00,2013-06-28 07:40:00,
2013-06-28 02:42:00,81.8,70.2,29.87,SSE,150,0.0,0.0,68,0.00,,,0.00,VWS V13.01,2013-06-28 07:42:00,
2013-06-28 02:47:00,81.7,70.1,29.87,SSE,150,0.0,5.0,68,0.00,,,0.00,VWS V13.01,2013-06-28 07:47:00,
2013-06-28 02:50:00,82.9,69.9,29.88,South,188,0.0,0.0,65,0.00,,,0.00,VWS V15.00,2013-06-28 07:50:00,
2013-06-28 02:52:00,81.5,69.9,29.87,SSE,151,0.0,0.0,68,0.00,,,0.00,VWS V13.01,2013-06-28 07:52:00,
2013-06-28 02:57:00,81.4,69.8,29.87,South,176,0.0,7.0,68,0.00,,,0.00,VWS V13.01,2013-06-28 07:57:00,
2013-06-28 03:00:00,82.8,69.8,29.88,South,186,0.0,0.0,65,0.00,,,0.00,VWS V15.00,2013-06-28 08:00:00,
2013-06-28 03:02:00,81.3,70.2,29.87,South,176,0.0,0.0,69,0.00,,,0.00,VWS V13.01,2013-06-28 08:02:00,
2013-06-28 03:07:00,81.2,70.1,29.87,South,176,0.0,0.0,69,0.00,,,0.00,VWS V13.01,2013-06-28 08:07:00,
2013-06-28 03:10:00,82.6,70.1,29.88,South,180,0.0,0.0,66,0.00,,,0.00,VWS V15.00,2013-06-28 08:10:00,
2013-06-28 03:12:00,80.9,69.8,29.87,South,176,0.0,0.0,69,0.00,,,0.00,VWS V13.01,2013-06-28 08:12:00,
2013-06-28 03:17:00,80.7,70.0,29.87,SSW,203,0.0,8.0,70,0.00,,,0.00,VWS V13.01,2013-06-28 08:17:00,
2013-06-28 03:20:00,82.3,70.2,29.87,SSE,157,4.0,6.0,67,0.00,,,0.00,VWS V15.00,2013-06-28 08:20:00,
2013-06-28 03:22:00,80.6,70.3,29.87,SSW,196,0.0,0.0,71,0.00,,,0.00,VWS V13.01,2013-06-28 08:22:00,
2013-06-28 03:27:00,80.5,70.2,29.87,SSW,195,0.0,0.0,71,0.00,,,0.00,VWS V13.01,2013-06-28 08:27:00,
2013-06-28 03:30:00,82.1,70.1,29.87,SSE,158,4.0,8.0,67,0.00,,,0.00,VWS V15.00,2013-06-28 08:30:00,
2013-06-28 03:32:00,80.4,70.1,29.86,SSW,196,0.0,0.0,71,0.00,,,0.00,VWS V13.01,2013-06-28 08:32:00,
2013-06-28 03:37:00,80.2,69.9,29.86,SSW,197,0.0,3.0,71,0.00,,,0.00,VWS V13.01,2013-06-28 08:37:00,
2013-06-28 03:40:00,81.8,70.2,29.87,SSE,150,0.0,6.0,68,0.00,,,0.00,VWS V15.00,2013-06-28 08:40:00,
2013-06-28 03:42:00,80.0,70.2,29.86,SW,214,0.0,6.0,72,0.00,,,0.00,VWS V13.01,2013-06-28 08:42:00,
2013-06-28 03:47:00,79.8,70.0,29.85,SSW,213,0.0,6.0,72,0.00,,,0.00,VWS V13.01,2013-06-28 08:47:00,
2013-06-28 03:50:00,81.6,70.0,29.87,SSE,150,0.0,5.0,68,0.00,,,0.00,VWS V15.00,2013-06-28 08:50:00,
2013-06-28 03:52:00,79.8,70.0,29.85,SSW,213,0.0,0.0,72,0.00,,,0.00,VWS V13.01,2013-06-28 08:52:00,
2013-06-28 03:57:00,79.7,69.9,29.85,SSW,212,0.0,0.0,72,0.00,,,0.00,VWS V13.01,2013-06-28 08:57:00,
2013-06-28 04:00:00,81.4,70.3,29.87,South,176,0.0,7.0,69,0.00,,,0.00,VWS V15.00,2013-06-28 09:00:00,
2013-06-28 04:02:00,79.6,70.2,29.85,SSW,211,0.0,0.0,73,0.00,,,0.00,VWS V13.01,2013-06-28 09:02:00,
2013-06-28 04:07:00,79.3,69.9,29.85,SSW,211,3.0,4.0,73,0.00,,,0.00,VWS V13.01,2013-06-28 09:07:00,
2013-06-28 04:10:00,81.0,69.9,29.87,South,176,0.0,4.0,69,0.00,,,0.00,VWS V15.00,2013-06-28 09:10:00,
2013-06-28 04:12:00,79.1,70.1,29.85,SSW,209,0.0,0.0,74,0.00,,,0.00,VWS V13.01,2013-06-28 09:12:00,
2013-06-28 04:17:00,79.0,70.0,29.84,SSW,207,0.0,12.0,74,0.00,,,0.00,VWS V13.01,2013-06-28 09:17:00,
2013-06-28 04:20:00,80.6,70.3,29.87,SSW,195,0.0,9.0,71,0.00,,,0.00,VWS V15.00,2013-06-28 09:20:00,
2013-06-28 04:22:00,78.9,69.9,29.84,South,184,0.0,8.0,74,0.00,,,0.00,VWS V13.01,2013-06-28 09:22:00,
2013-06-28 04:27:00,78.9,69.9,29.84,SSW,209,0.0,10.0,74,0.00,,,0.00,VWS V13.01,2013-06-28 09:27:00,
2013-06-28 04:30:00,80.4,70.1,29.86,SSW,196,0.0,0.0,71,0.00,,,0.00,VWS V15.00,2013-06-28 09:30:00,
2013-06-28 04:32:00,78.7,70.1,29.84,SSW,210,0.0,0.0,75,0.00,,,0.00,VWS V13.01,2013-06-28 09:32:00,
2013-06-28 04:37:00,78.7,70.1,29.84,SSW,199,6.0,6.0,75,0.00,,,0.00,VWS V13.01,2013-06-28 09:37:00,
2013-06-28 04:40:00,80.0,70.2,29.86,SSW,207,4.0,5.0,72,0.00,,,0.00,VWS V15.00,2013-06-28 09:40:00,
2013-06-28 04:42:00,78.7,70.1,29.84,SW,225,4.0,9.0,75,0.00,,,0.00,VWS V13.01,2013-06-28 09:42:00,
2013-06-28 04:47:00,78.5,69.9,29.84,SW,221,0.0,9.0,75,0.00,,,0.00,VWS V13.01,2013-06-28 09:47:00,
2013-06-28 04:50:00,79.8,70.0,29.85,SSW,213,0.0,6.0,72,0.00,,,0.00,VWS V15.00,2013-06-28 09:50:00,
2013-06-28 04:52:00,78.4,69.8,29.84,SSW,202,0.0,4.0,75,0.00,,,0.00,VWS V13.01,2013-06-28 09:52:00,
2013-06-28 04:57:00,78.3,69.7,29.84,SSW,195,0.0,8.0,75,0.00,,,0.00,VWS V13.01,2013-06-28 09:57:00,
2013-06-28 05:00:00,79.6,70.2,29.85,SSW,212,0.0,0.0,73,0.00,,,0.00,VWS V15.00,2013-06-28 10:00:00,
2013-06-28 05:02:00,78.2,69.6,29.85,SSW,202,0.0,0.0,75,0.00,,,0.00,VWS V13.01,2013-06-28 10:02:00,
2013-06-28 05:07:00,78.2,69.2,29.85,SSW,202,0.0,0.0,74,0.00,,,0.00,VWS V13.01,2013-06-28 10:07:00,
2013-06-28 05:10:00,79.2,70.2,29.85,SSW,208,0.0,7.0,74,0.00,,,0.00,VWS V15.00,2013-06-28 10:10:00,
2013-06-28 05:12:00,78.1,69.1,29.85,SSW,202,0.0,0.0,74,0.00,,,0.00,VWS V13.01,2013-06-28 10:12:00,
2013-06-28 05:17:00,78.1,69.1,29.86,SSW,202,0.0,0.0,74,0.00,,,0.00,VWS V13.01,2013-06-28 10:17:00,
2013-06-28 05:20:00,78.9,69.9,29.84,South,190,0.0,12.0,74,0.00,,,0.00,VWS V15.00,2013-06-28 10:20:00,
2013-06-28 05:22:00,78.0,69.1,29.86,SSW,202,0.0,0.0,74,0.00,,,0.00,VWS V13.01,2013-06-28 10:22:00,
2013-06-28 05:27:00,78.0,69.1,29.86,SSW,202,0.0,0.0,74,0.00,,,0.00,VWS V13.01,2013-06-28 10:27:00,
2013-06-28 05:30:00,78.8,70.2,29.84,SSW,210,0.0,10.0,75,0.00,,,0.00,VWS V15.00,2013-06-28 10:30:00,
2013-06-28 05:32:00,77.9,68.9,29.87,SSW,202,0.0,0.0,74,0.00,,,0.00,VWS V13.01,2013-06-28 10:32:00,
2013-06-28 05:37:00,77.8,68.9,29.87,SSW,202,0.0,0.0,74,0.00,,,0.00,VWS V13.01,2013-06-28 10:37:00,
2013-06-28 05:40:00,78.7,70.1,29.84,SW,221,6.0,10.0,75,0.00,,,0.00,VWS V15.00,2013-06-28 10:40:00,
2013-06-28 05:42:00,77.7,68.8,29.87,SSW,202,0.0,0.0,74,0.00,,,0.00,VWS V13.01,2013-06-28 10:42:00,
2013-06-28 05:47:00,77.6,69.1,29.87,SSW,202,0.0,0.0,75,0.00,,,0.00,VWS V13.01,2013-06-28 10:47:00,
2013-06-28 05:50:00,78.4,69.8,29.84,SSW,210,0.0,9.0,75,0.00,,,0.00,VWS V15.00,2013-06-28 10:50:00,
2013-06-28 05:52:00,77.6,69.1,29.87,SSW,202,0.0,0.0,75,0.00,,,0.00,VWS V13.01,2013-06-28 10:52:00,
2013-06-28 05:57:00,77.5,69.3,29.87,SSW,198,0.0,0.0,76,0.00,,,0.00,VWS V13.01,2013-06-28 10:57:00,
2013-06-28 06:00:00,78.3,69.7,29.85,SSW,202,0.0,8.0,75,0.00,,,0.00,VWS V15.00,2013-06-28 11:00:00,
2013-06-28 06:02:00,77.2,69.1,29.86,SSW,202,0.0,0.0,76,0.00,,,0.00,VWS V13.01,2013-06-28 11:02:00,
2013-06-28 06:07:00,77.0,68.9,29.86,SSW,202,0.0,0.0,76,0.00,,,0.00,VWS V13.01,2013-06-28 11:07:00,
2013-06-28 06:10:00,78.1,69.1,29.85,SSW,202,0.0,0.0,74,0.00,,,0.00,VWS V15.00,2013-06-28 11:10:00,
2013-06-28 06:12:00,76.7,68.9,29.86,SSW,202,0.0,0.0,77,0.00,,,0.00,VWS V13.01,2013-06-28 11:12:00,
2013-06-28 06:17:00,76.6,69.2,29.86,SSW,213,0.0,0.0,78,0.00,,,0.00,VWS V13.01,2013-06-28 11:17:00,
2013-06-28 06:20:00,78.0,69.1,29.86,SSW,202,0.0,0.0,74,0.00,,,0.00,VWS V15.00,2013-06-28 11:20:00,
2013-06-28 06:22:00,76.5,69.1,29.86,SSW,213,0.0,0.0,78,0.00,,,0.00,VWS V13.01,2013-06-28 11:22:00,
2013-06-28 06:27:00,76.4,69.0,29.86,SSW,213,0.0,0.0,78,0.00,,,0.00,VWS V13.01,2013-06-28 11:27:00,
2013-06-28 06:30:00,78.0,69.1,29.87,SSW,202,0.0,0.0,74,0.00,,,0.00,VWS V15.00,2013-06-28 11:30:00,
2013-06-28 06:32:00,76.4,69.0,29.88,SSW,213,0.0,0.0,78,0.00,,,0.00,VWS V13.01,2013-06-28 11:32:00,
2013-06-28 06:37:00,76.4,69.0,29.88,SSW,213,0.0,0.0,78,0.00,,,0.00,VWS V13.01,2013-06-28 11:37:00,
2013-06-28 06:40:00,77.7,68.8,29.87,SSW,202,0.0,0.0,74,0.00,,,0.00,VWS V15.00,2013-06-28 11:40:00,
2013-06-28 06:42:00,76.3,69.3,29.88,SSW,213,0.0,0.0,79,0.00,,,0.00,VWS V13.01,2013-06-28 11:42:00,
2013-06-28 06:47:00,76.2,69.2,29.88,SSW,213,0.0,0.0,79,0.00,,,0.00,VWS V13.01,2013-06-28 11:47:00,
2013-06-28 06:50:00,77.6,69.1,29.87,SSW,202,0.0,0.0,75,0.00,,,0.00,VWS V15.00,2013-06-28 11:50:00,
2013-06-28 06:52:00,76.1,69.1,29.88,SSW,213,0.0,0.0,79,0.00,,,0.00,VWS V13.01,2013-06-28 11:52:00,
2013-06-28 06:57:00,76.1,69.1,29.88,SSW,213,0.0,0.0,79,0.00,,,0.00,VWS V13.01,2013-06-28 11:57:00,
2013-06-28 07:00:00,77.3,69.2,29.86,SSW,202,0.0,0.0,76,0.00,,,0.00,VWS V15.00,2013-06-28 12:00:00,
2013-06-28 07:02:00,76.0,69.4,29.89,SSW,213,0.0,0.0,80,0.00,,,0.00,VWS V13.01,2013-06-28 12:02:00,
2013-06-28 07:08:00,76.0,69.4,29.89,SSW,213,0.0,0.0,80,0.00,,,0.00,VWS V13.01,2013-06-28 12:08:00,
2013-06-28 07:09:00,76.0,69.4,29.89,SSW,213,0.0,0.0,80,0.00,,,0.00,VWS V13.01,2013-06-28 12:09:00,
2013-06-28 07:10:00,76.8,69.1,29.86,SSW,202,0.0,0.0,77,0.00,,,0.00,VWS V15.00,2013-06-28 12:10:00,
2013-06-28 07:14:00,75.9,69.7,29.89,SW,234,0.0,0.0,81,0.00,,,0.00,VWS V13.01,2013-06-28 12:14:00,
2013-06-28 07:19:00,75.9,69.7,29.89,South,177,0.0,0.0,81,0.00,,,0.00,VWS V13.01,2013-06-28 12:19:00,
2013-06-28 07:20:00,76.5,69.1,29.86,SSW,213,0.0,0.0,78,0.00,,,0.00,VWS V15.00,2013-06-28 12:20:00,
2013-06-28 07:24:00,75.9,69.7,29.89,South,177,0.0,0.0,81,0.00,,,0.00,VWS V13.01,2013-06-28 12:24:00,
2013-06-28 07:29:00,76.0,69.8,29.89,South,176,0.0,0.0,81,0.00,,,0.00,VWS V13.01,2013-06-28 12:29:00,
2013-06-28 07:30:00,76.4,69.0,29.88,SSW,213,0.0,0.0,78,0.00,,,0.00,VWS V15.00,2013-06-28 12:30:00,
2013-06-28 07:34:00,76.0,70.1,29.90,South,177,0.0,0.0,82,0.00,,,0.00,VWS V13.01,2013-06-28 12:34:00,
2013-06-28 07:39:00,76.1,70.2,29.90,South,176,0.0,0.0,82,0.00,,,0.00,VWS V13.01,2013-06-28 12:39:00,
2013-06-28 07:40:00,76.3,69.3,29.88,SSW,213,0.0,0.0,79,0.00,,,0.00,VWS V15.00,2013-06-28 12:40:00,
2013-06-28 07:44:00,76.2,70.3,29.90,WNW,286,0.0,0.0,82,0.00,,,0.00,VWS V13.01,2013-06-28 12:44:00,
2013-06-28 07:49:00,76.3,70.4,29.91,WNW,286,0.0,0.0,82,0.00,,,0.00,VWS V13.01,2013-06-28 12:49:00,
2013-06-28 07:50:00,76.2,69.2,29.88,SSW,213,0.0,0.0,79,0.00,,,0.00,VWS V15.00,2013-06-28 12:50:00,
2013-06-28 07:54:00,76.4,70.5,29.91,WNW,286,0.0,0.0,82,0.00,,,0.00,VWS V13.01,2013-06-28 12:54:00,
2013-06-28 07:59:00,76.6,70.7,29.91,WNW,286,0.0,0.0,82,0.00,,,0.00,VWS V13.01,2013-06-28 12:59:00,
2013-06-28 08:00:00,76.1,69.5,29.89,SSW,213,0.0,0.0,80,0.00,,,0.00,VWS V15.00,2013-06-28 13:00:00,
2013-06-28 08:04:00,76.8,70.5,29.90,West,279,0.0,0.0,81,0.00,,,0.00,VWS V13.01,2013-06-28 13:04:00,
2013-06-28 08:09:00,77.0,70.7,29.90,West,275,0.0,1.0,81,0.00,,,0.00,VWS V13.01,2013-06-28 13:09:00,
2013-06-28 08:10:00,76.0,69.4,29.89,SSW,213,0.0,0.0,80,0.00,,,0.00,VWS V15.00,2013-06-28 13:10:00,
2013-06-28 08:14:00,77.3,70.7,29.90,West,274,6.0,8.0,80,0.00,,,0.00,VWS V13.01,2013-06-28 13:14:00,
2013-06-28 08:19:00,77.4,70.8,29.90,West,272,0.0,8.0,80,0.00,,,0.00,VWS V13.01,2013-06-28 13:19:00,
2013-06-28 08:20:00,75.9,69.7,29.89,South,176,0.0,0.0,81,0.00,,,0.00,VWS V15.00,2013-06-28 13:20:00,
2013-06-28 08:24:00,77.7,70.7,29.90,West,269,0.0,6.0,79,0.00,,,0.00,VWS V13.01,2013-06-28 13:24:00,
2013-06-28 08:29:00,78.0,71.0,29.90,West,269,7.0,8.0,79,0.00,,,0.00,VWS V13.01,2013-06-28 13:29:00,
2013-06-28 08:30:00,76.0,70.1,29.90,South,177,0.0,0.0,82,0.00,,,0.00,VWS V15.00,2013-06-28 13:30:00,
2013-06-28 08:34:00,78.4,71.3,29.90,WSW,252,0.0,6.0,79,0.00,,,0.00,VWS V13.01,2013-06-28 13:34:00,
2013-06-28 08:39:00,78.7,71.3,29.90,West,278,4.0,7.0,78,0.00,,,0.00,VWS V13.01,2013-06-28 13:39:00,
2013-06-28 08:40:00,76.1,70.2,29.90,WNW,288,0.0,0.0,82,0.00,,,0.00,VWS V15.00,2013-06-28 13:40:00,
2013-06-28 08:44:00,79.0,71.2,29.90,West,265,5.0,7.0,77,0.00,,,0.00,VWS V13.01,2013-06-28 13:44:00,
2013-06-28 08:49:00,79.4,71.2,29.90,West,259,5.0,7.0,76,0.00,,,0.00,VWS V13.01,2013-06-28 13:49:00,
2013-06-28 08:50:00,76.4,70.5,29.91,WNW,286,0.0,0.0,82,0.00,,,0.00,VWS V15.00,2013-06-28 13:50:00,
2013-06-28 08:54:00,79.7,71.1,29.90,WSW,256,2.0,8.0,75,0.00,,,0.00,VWS V13.01,2013-06-28 13:54:00,
2013-06-28 08:59:00,80.1,71.1,29.90,West,273,0.0,8.0,74,0.00,,,0.00,VWS V13.01,2013-06-28 13:59:00,
2013-06-28 09:00:00,76.7,70.8,29.90,WNW,282,0.0,0.0,82,0.00,,,0.00,VWS V15.00,2013-06-28 14:00:00,
2013-06-28 09:04:00,80.5,71.5,29.90,West,273,0.0,0.0,74,0.00,,,0.00,VWS V13.01,2013-06-28 14:04:00,
2013-06-28 09:09:00,80.9,71.0,29.90,West,281,0.0,9.0,72,0.00,,,0.00,VWS V13.01,2013-06-28 14:09:00,
2013-06-28 09:10:00,77.1,70.8,29.90,WSW,254,5.0,8.0,81,0.00,,,0.00,VWS V15.00,2013-06-28 14:10:00,
2013-06-28 09:14:00,81.3,71.4,29.90,West,276,0.0,0.0,72,0.00,,,0.00,VWS V13.01,2013-06-28 14:14:00,
2013-06-28 09:19:00,81.9,71.6,29.90,West,271,0.0,0.0,71,0.00,,,0.00,VWS V13.01,2013-06-28 14:19:00,
2013-06-28 09:20:00,77.5,70.8,29.90,West,273,4.0,8.0,80,0.00,,,0.00,VWS V15.00,2013-06-28 14:20:00,
2013-06-28 09:24:00,82.0,71.3,29.90,WSW,237,0.0,9.0,70,0.00,,,0.00,VWS V13.01,2013-06-28 14:24:00,
2013-06-28 09:29:00,82.3,71.1,29.90,West,262,6.0,11.0,69,0.00,,,0.00,VWS V13.01,2013-06-28 14:29:00,
2013-06-28 09:30:00,78.1,71.1,29.90,WSW,253,5.0,9.0,79,0.00,,,0.00,VWS V15.00,2013-06-28 14:30:00,
2013-06-28 09:34:00,82.7,71.5,29.88,WSW,240,7.0,10.0,69,0.00,,,0.00,VWS V13.01,2013-06-28 14:34:00,
2013-06-28 09:39:00,83.1,71.4,29.88,SW,234,0.0,10.0,68,0.00,,,0.00,VWS V13.01,2013-06-28 14:39:00,
2013-06-28 09:40:00,78.7,70.9,29.90,West,276,3.0,8.0,77,0.00,,,0.00,VWS V15.00,2013-06-28 14:40:00,
2013-06-28 09:44:00,83.9,71.8,29.88,West,268,5.0,7.0,67,0.00,,,0.00,VWS V13.01,2013-06-28 14:44:00,
2013-06-28 09:50:00,84.4,70.9,29.89,West,273,0.0,8.0,64,0.00,,,0.00,VWS V13.01,2013-06-28 14:50:00,
2013-06-28 09:55:00,84.7,70.7,29.89,WNW,283,0.0,6.0,63,0.00,,,0.00,VWS V13.01,2013-06-28 14:55:00,
2013-06-28 10:00:00,85.2,70.7,29.89,WNW,293,6.0,8.0,62,0.00,,,0.00,VWS V13.01,2013-06-28 15:00:00,
2013-06-28 10:05:00,85.8,70.3,29.88,West,268,4.0,8.0,60,0.00,,,0.00,VWS V13.01,2013-06-28 15:05:00,
2013-06-28 10:10:00,86.1,70.6,29.88,NW,305,8.0,9.0,60,0.00,,,0.00,VWS V13.01,2013-06-28 15:10:00,
2013-06-28 10:15:00,86.2,69.7,29.88,West,276,7.0,9.0,58,0.00,,,0.00,VWS V13.01,2013-06-28 15:15:00,
2013-06-28 10:20:00,86.5,70.0,29.89,West,279,4.0,9.0,58,0.00,,,0.00,VWS V13.01,2013-06-28 15:20:00,
2013-06-28 10:25:00,87.1,70.0,29.89,West,279,5.0,10.0,57,0.00,,,0.00,VWS V13.01,2013-06-28 15:25:00,
2013-06-28 10:30:00,87.5,69.9,29.89,WSW,252,7.0,10.0,56,0.00,,,0.00,VWS V13.01,2013-06-28 15:30:00,
2013-06-28 10:35:00,88.1,70.4,29.89,WSW,250,4.0,6.0,56,0.00,,,0.00,VWS V13.01,2013-06-28 15:35:00,
2013-06-28 10:40:00,88.8,70.0,29.89,WNW,288,5.0,6.0,54,0.00,,,0.00,VWS V13.01,2013-06-28 15:40:00,
2013-06-28 10:45:00,89.3,69.9,29.89,WNW,287,9.0,9.0,53,0.00,,,0.00,VWS V13.01,2013-06-28 15:45:00,
2013-06-28 10:50:00,89.6,69.7,29.89,WNW,294,8.0,9.0,52,0.00,,,0.00,VWS V13.01,2013-06-28 15:50:00,
2013-06-28 10:55:00,90.1,69.6,29.89,WNW,292,5.0,5.0,51,0.00,,,0.00,VWS V13.01,2013-06-28 15:55:00,
2013-06-28 11:00:00,90.6,70.0,29.89,WNW,292,0.0,7.0,51,0.00,,,0.00,VWS V13.01,2013-06-28 16:00:00,
2013-06-28 11:06:00,90.8,69.6,29.89,West,261,6.0,7.0,50,0.00,,,0.00,VWS V13.01,2013-06-28 16:06:00,
2013-06-28 11:10:00,86.0,70.5,29.88,NW,304,6.0,9.0,60,0.00,,,0.00,VWS V15.00,2013-06-28 16:10:00,
2013-06-28 11:11:00,91.6,69.2,29.89,West,265,0.0,7.0,48,0.00,,,0.00,VWS V13.01,2013-06-28 16:11:00,
2013-06-28 11:16:00,91.8,70.5,29.88,WSW,250,0.0,0.0,50,0.00,,,0.00,VWS V13.01,2013-06-28 16:16:00,
2013-06-28 11:20:00,86.6,70.1,29.89,West,279,5.0,9.0,58,0.00,,,0.00,VWS V15.00,2013-06-28 16:20:00,
2013-06-28 11:21:00,92.4,70.5,29.88,West,277,0.0,0.0,49,0.00,,,0.00,VWS V13.01,2013-06-28 16:21:00,
2013-06-28 11:26:00,93.1,70.5,29.88,WNW,294,3.0,7.0,48,0.00,,,0.00,VWS V13.01,2013-06-28 16:26:00,
2013-06-28 11:30:00,87.5,69.9,29.89,WSW,251,2.0,10.0,56,0.00,,,0.00,VWS V15.00,2013-06-28 16:30:00,
2013-06-28 11:31:00,93.5,70.3,29.88,WNW,294,0.0,7.0,47,0.00,,,0.00,VWS V13.01,2013-06-28 16:31:00,
2013-06-28 11:36:00,94.0,70.1,29.88,West,271,0.0,7.0,46,0.00,,,0.00,VWS V13.01,2013-06-28 16:36:00,
2013-06-28 11:40:00,88.8,70.0,29.89,West,281,5.0,6.0,54,0.00,,,0.00,VWS V15.00,2013-06-28 16:40:00,
2013-06-28 11:41:00,94.5,69.9,29.88,West,268,0.0,7.0,45,0.00,,,0.00,VWS V13.01,2013-06-28 16:41:00,
2013-06-28 11:46:00,94.9,69.6,29.87,West,269,0.0,0.0,44,0.00,,,0.00,VWS V13.01,2013-06-28 16:46:00,
2013-06-28 11:50:00,89.6,69.7,29.89,WNW,294,2.0,9.0,52,0.00,,,0.00,VWS V15.00,2013-06-28 16:50:00,
2013-06-28 11:51:00,95.4,69.4,29.87,West,269,0.0,0.0,43,0.00,,,0.00,VWS V13.01,2013-06-28 16:51:00,
2013-06-28 11:56:00,96.1,70.0,29.87,West,266,4.0,5.0,43,0.00,,,0.00,VWS V13.01,2013-06-28 16:56:00,
2013-06-28 12:00:00,90.7,70.1,29.89,WNW,292,0.0,7.0,51,0.00,,,0.00,VWS V15.00,2013-06-28 17:00:00,
2013-06-28 12:01:00,96.3,70.2,29.86,WSW,241,0.0,11.0,43,0.00,,,0.00,VWS V13.01,2013-06-28 17:01:00,
2013-06-28 12:06:00,96.3,69.5,29.86,WSW,241,6.0,7.0,42,0.00,,,0.00,VWS V13.01,2013-06-28 17:06:00,
2013-06-28 12:10:00,91.6,69.8,29.89,West,265,0.0,7.0,49,0.00,,,0.00,VWS V15.00,2013-06-28 17:10:00,
2013-06-28 12:11:00,96.8,69.9,29.86,WSW,242,0.0,7.0,42,0.00,,,0.00,VWS V13.01,2013-06-28 17:11:00,
2013-06-28 12:16:00,97.1,69.5,29.85,NNW,329,0.0,5.0,41,0.00,,,0.00,VWS V13.01,2013-06-28 17:16:00,
2013-06-28 12:20:00,92.5,70.0,29.88,West,277,0.0,0.0,48,0.00,,,0.00,VWS V15.00,2013-06-28 17:20:00,
2013-06-28 12:21:00,97.3,69.7,29.85,West,269,3.0,8.0,41,0.00,,,0.00,VWS V13.01,2013-06-28 17:21:00,
2013-06-28 12:26:00,97.9,69.5,29.85,West,271,0.0,0.0,40,0.00,,,0.00,VWS V13.01,2013-06-28 17:26:00,
2013-06-28 12:30:00,93.6,70.3,29.88,WNW,294,0.0,7.0,47,0.00,,,0.00,VWS V15.00,2013-06-28 17:30:00,
2013-06-28 12:31:00,97.5,69.9,29.85,NW,312,0.0,0.0,41,0.00,,,0.00,VWS V13.01,2013-06-28 17:31:00,
2013-06-28 12:36:00,98.2,69.0,29.85,NW,306,0.0,0.0,39,0.00,,,0.00,VWS V13.01,2013-06-28 17:36:00,
2013-06-28 12:40:00,94.6,69.3,29.88,West,268,0.0,7.0,44,0.00,,,0.00,VWS V15.00,2013-06-28 17:40:00,
2013-06-28 12:41:00,99.0,69.0,29.85,WNW,302,3.0,4.0,38,0.00,,,0.00,VWS V13.01,2013-06-28 17:41:00,
2013-06-28 12:46:00,99.3,66.8,29.84,WNW,302,0.0,8.0,35,0.00,,,0.00,VWS V13.01,2013-06-28 17:46:00,
2013-06-28 12:50:00,95.5,70.1,29.87,West,269,0.0,0.0,44,0.00,,,0.00,VWS V15.00,2013-06-28 17:50:00,
2013-06-28 12:51:00,99.1,67.5,29.84,WNW,302,0.0,8.0,36,0.00,,,0.00,VWS V13.01,2013-06-28 17:51:00,
2013-06-28 12:56:00,99.9,69.0,29.84,WNW,302,0.0,0.0,37,0.00,,,0.00,VWS V13.01,2013-06-28 17:56:00,
2013-06-28 13:00:00,96.3,70.2,29.86,WSW,241,0.0,11.0,43,0.00,,,0.00,VWS V15.00,2013-06-28 18:00:00,
2013-06-28 13:01:00,100.6,68.8,29.84,WNW,295,0.0,3.0,36,0.00,,,0.00,VWS V13.01,2013-06-28 18:01:00,
2013-06-28 13:06:00,101.3,67.8,29.84,West,273,0.0,3.0,34,0.00,,,0.00,VWS V13.01,2013-06-28 18:06:00,
2013-06-28 13:10:00,96.8,69.9,29.86,WSW,254,0.0,7.0,42,0.00,,,0.00,VWS V15.00,2013-06-28 18:10:00,
2013-06-28 13:11:00,101.1,66.7,29.84,West,272,0.0,3.0,33,0.00,,,0.00,VWS V13.01,2013-06-28 18:11:00,
2013-06-28 13:16:00,101.6,68.8,29.82,West,280,6.0,6.0,35,0.00,,,0.00,VWS V13.01,2013-06-28 18:16:00,
2013-06-28 13:20:00,97.3,69.7,29.85,West,269,0.0,8.0,41,0.00,,,0.00,VWS V15.00,2013-06-28 18:20:00,
2013-06-28 13:21:00,102.2,67.7,29.82,WNW,298,0.0,6.0,33,0.00,,,0.00,VWS V13.01,2013-06-28 18:21:00,
2013-06-28 13:26:00,103.3,67.7,29.82,WNW,298,0.0,0.0,32,0.00,,,0.00,VWS V13.01,2013-06-28 18:26:00,
2013-06-28 13:30:00,97.5,69.9,29.85,NW,312,0.0,0.0,41,0.00,,,0.00,VWS V15.00,2013-06-28 18:30:00,
2013-06-28 13:31:00,104.1,67.5,29.82,WNW,291,5.0,6.0,31,0.00,,,0.00,VWS V13.01,2013-06-28 18:31:00,
2013-06-28 13:36:00,104.3,68.6,29.82,West,268,1.0,8.0,32,0.00,,,0.00,VWS V13.01,2013-06-28 18:36:00,
2013-06-28 13:40:00,99.1,69.1,29.85,WNW,302,5.0,5.0,38,0.00,,,0.00,VWS V15.00,2013-06-28 18:40:00,
2013-06-28 13:41:00,104.2,67.6,29.82,NW,326,1.0,8.0,31,0.00,,,0.00,VWS V13.01,2013-06-28 18:41:00,
2013-06-28 13:46:00,103.7,68.1,29.82,North,360,0.0,0.0,32,0.00,,,0.00,VWS V13.01,2013-06-28 18:46:00,
2013-06-28 13:50:00,99.1,67.5,29.84,WNW,302,0.0,8.0,36,0.00,,,0.00,VWS V15.00,2013-06-28 18:50:00,
2013-06-28 13:51:00,102.9,67.4,29.82,North,11,0.0,7.0,32,0.00,,,0.00,VWS V13.01,2013-06-28 18:51:00,
2013-06-28 13:56:00,102.5,67.0,29.82,NNW,348,0.0,9.0,32,0.00,,,0.00,VWS V13.01,2013-06-28 18:56:00,
2013-06-28 14:00:00,100.7,68.9,29.84,WNW,295,0.0,3.0,36,0.00,,,0.00,VWS V15.00,2013-06-28 19:00:00,
2013-06-28 14:01:00,102.5,67.0,29.81,North,350,0.0,9.0,32,0.00,,,0.00,VWS V13.01,2013-06-28 19:01:00,
2013-06-28 14:06:00,103.0,67.5,29.81,North,350,0.0,5.0,32,0.00,,,0.00,VWS V13.01,2013-06-28 19:06:00,
2013-06-28 14:10:00,101.1,66.7,29.84,West,273,0.0,3.0,33,0.00,,,0.00,VWS V15.00,2013-06-28 19:10:00,
2013-06-28 14:11:00,103.1,65.7,29.81,NE,55,0.0,0.0,30,0.00,,,0.00,VWS V13.01,2013-06-28 19:11:00,
2013-06-28 14:16:00,102.0,65.7,29.80,East,91,0.0,4.0,31,0.00,,,0.00,VWS V13.01,2013-06-28 19:16:00,
2013-06-28 14:20:00,102.3,67.8,29.82,WNW,298,0.0,6.0,33,0.00,,,0.00,VWS V15.00,2013-06-28 19:20:00,
2013-06-28 14:21:00,102.3,65.9,29.80,East,92,0.0,0.0,31,0.00,,,0.00,VWS V13.01,2013-06-28 19:21:00,
2013-06-28 14:26:00,102.0,66.6,29.80,SE,145,0.0,7.0,32,0.00,,,0.00,VWS V13.01,2013-06-28 19:26:00,
2013-06-28 14:30:00,104.1,67.5,29.82,WNW,291,4.0,6.0,31,0.00,,,0.00,VWS V15.00,2013-06-28 19:30:00,
2013-06-28 14:31:00,103.2,67.6,29.79,SSW,202,4.0,4.0,32,0.00,,,0.00,VWS V13.01,2013-06-28 19:31:00,
2013-06-28 14:36:00,104.5,65.9,29.79,ENE,59,8.0,8.0,29,0.00,,,0.00,VWS V13.01,2013-06-28 19:36:00,
2013-06-28 14:40:00,104.2,67.6,29.82,NW,326,0.0,8.0,31,0.00,,,0.00,VWS V15.00,2013-06-28 19:40:00,
2013-06-28 14:41:00,104.4,66.8,29.79,NNE,33,0.0,2.0,30,0.00,,,0.00,VWS V13.01,2013-06-28 19:41:00,
2013-06-28 14:46:00,104.3,65.7,29.79,North,360,0.0,7.0,29,0.00,,,0.00,VWS V13.01,2013-06-28 19:46:00,
2013-06-28 14:50:00,102.9,67.4,29.82,North,11,0.0,7.0,32,0.00,,,0.00,VWS V15.00,2013-06-28 19:50:00,
2013-06-28 14:51:00,104.8,66.2,29.79,ENE,65,5.0,8.0,29,0.00,,,0.00,VWS V13.01,2013-06-28 19:51:00,
2013-06-28 14:56:00,104.1,65.6,29.79,NNW,344,5.0,8.0,29,0.00,,,0.00,VWS V13.01,2013-06-28 19:56:00,
2013-06-28 15:00:00,102.5,67.0,29.81,North,350,0.0,9.0,32,0.00,,,0.00,VWS V15.00,2013-06-28 20:00:00,
2013-06-28 15:01:00,104.5,65.9,29.78,WNW,290,3.0,4.0,29,0.00,,,0.00,VWS V13.01,2013-06-28 20:01:00,
2013-06-28 15:06:00,105.4,66.7,29.78,SSE,155,0.0,4.0,29,0.00,,,0.00,VWS V13.01,2013-06-28 20:06:00,
2013-06-28 15:10:00,103.1,65.7,29.81,NE,55,0.0,6.0,30,0.00,,,0.00,VWS V15.00,2013-06-28 20:10:00,
2013-06-28 15:11:00,104.5,66.9,29.78,SE,140,5.0,8.0,30,0.00,,,0.00,VWS V13.01,2013-06-28 20:11:00,
2013-06-28 15:16:00,103.2,67.6,29.77,SE,144,0.0,10.0,32,0.00,,,0.00,VWS V13.01,2013-06-28 20:16:00,
2013-06-28 15:20:00,102.3,65.9,29.80,East,92,0.0,4.0,31,0.00,,,0.00,VWS V15.00,2013-06-28 20:20:00,
2013-06-28 15:21:00,102.4,66.0,29.77,SE,134,6.0,6.0,31,0.00,,,0.00,VWS V13.01,2013-06-28 20:21:00,
2013-06-28 15:26:00,101.9,67.4,29.77,SSE,154,0.0,9.0,33,0.00,,,0.00,VWS V13.01,2013-06-28 20:26:00,
2013-06-28 15:30:00,103.1,67.6,29.79,SE,145,0.0,7.0,32,0.00,,,0.00,VWS V15.00,2013-06-28 20:30:00,
2013-06-28 15:31:00,102.5,67.0,29.76,South,188,0.0,0.0,32,0.00,,,0.00,VWS V13.01,2013-06-28 20:31:00,
2013-06-28 15:36:00,103.7,67.2,29.76,SSW,192,0.0,6.0,31,0.00,,,0.00,VWS V13.01,2013-06-28 20:36:00,
2013-06-28 15:40:00,104.4,66.8,29.79,NNE,33,2.0,8.0,30,0.00,,,0.00,VWS V15.00,2013-06-28 20:40:00,
2013-06-28 15:41:00,104.7,67.1,29.76,SSW,199,0.0,2.0,30,0.00,,,0.00,VWS V13.01,2013-06-28 20:41:00,
2013-06-28 15:47:00,105.1,66.4,29.76,SSW,202,0.0,5.0,29,0.00,,,0.00,VWS V13.01,2013-06-28 20:47:00,
2013-06-28 15:50:00,104.8,66.2,29.79,ENE,60,8.0,8.0,29,0.00,,,0.00,VWS V15.00,2013-06-28 20:50:00,
2013-06-28 15:52:00,105.1,66.4,29.76,South,178,0.0,0.0,29,0.00,,,0.00,VWS V13.01,2013-06-28 20:52:00,
2013-06-28 15:57:00,105.3,65.6,29.76,SW,218,3.0,6.0,28,0.00,,,0.00,VWS V13.01,2013-06-28 20:57:00,
2013-06-28 16:00:00,104.5,65.9,29.78,WNW,290,3.0,8.0,29,0.00,,,0.00,VWS V15.00,2013-06-28 21:00:00,
2013-06-28 16:02:00,106.0,66.2,29.75,SW,219,0.0,6.0,28,0.00,,,0.00,VWS V13.01,2013-06-28 21:02:00,
2013-06-28 16:07:00,107.4,66.3,29.75,SW,222,0.0,1.0,27,0.00,,,0.00,VWS V13.01,2013-06-28 21:07:00,
2013-06-28 16:10:00,104.5,66.9,29.78,SE,132,7.0,11.0,30,0.00,,,0.00,VWS V15.00,2013-06-28 21:10:00,
2013-06-28 16:12:00,107.8,66.7,29.75,WSW,239,0.0,0.0,27,0.00,,,0.00,VWS V13.01,2013-06-28 21:12:00,
2013-06-28 16:17:00,107.1,67.1,29.74,SSE,156,7.0,7.0,28,0.00,,,0.00,VWS V13.01,2013-06-28 21:17:00,
2013-06-28 16:20:00,102.4,66.0,29.77,SE,133,6.0,11.0,31,0.00,,,0.00,VWS V15.00,2013-06-28 21:20:00,
2013-06-28 16:22:00,105.3,66.6,29.74,SE,130,0.0,0.0,29,0.00,,,0.00,VWS V13.01,2013-06-28 21:22:00,
2013-06-28 16:27:00,105.0,66.3,29.74,SSE,149,0.0,6.0,29,0.00,,,0.00,VWS V13.01,2013-06-28 21:27:00,
2013-06-28 16:30:00,102.4,66.9,29.76,South,188,0.0,9.0,32,0.00,,,0.00,VWS V15.00,2013-06-28 21:30:00,
2013-06-28 16:32:00,104.1,66.5,29.74,SE,127,5.0,9.0,30,0.00,,,0.00,VWS V13.01,2013-06-28 21:32:00,
2013-06-28 16:37:00,103.7,66.2,29.74,SE,125,0.0,9.0,30,0.00,,,0.00,VWS V13.01,2013-06-28 21:37:00,
2013-06-28 16:40:00,104.7,67.1,29.76,SSW,199,2.0,7.0,30,0.00,,,0.00,VWS V15.00,2013-06-28 21:40:00,
2013-06-28 16:42:00,103.9,65.4,29.74,SSE,155,4.0,8.0,29,0.00,,,0.00,VWS V13.01,2013-06-28 21:42:00,
2013-06-28 16:47:00,104.2,65.7,29.73,SSE,152,4.0,8.0,29,0.00,,,0.00,VWS V13.01,2013-06-28 21:47:00,
2013-06-28 16:50:00,105.2,66.5,29.76,South,178,0.0,7.0,29,0.00,,,0.00,VWS V15.00,2013-06-28 21:50:00,
2013-06-28 16:52:00,104.3,66.7,29.73,SSE,163,0.0,1.0,30,0.00,,,0.00,VWS V13.01,2013-06-28 21:52:00,
2013-06-28 16:57:00,104.6,65.0,29.73,SSE,153,0.0,3.0,28,0.00,,,0.00,VWS V13.01,2013-06-28 21:57:00,
2013-06-28 17:00:00,106.0,66.2,29.75,SW,219,0.0,6.0,28,0.00,,,0.00,VWS V15.00,2013-06-28 22:00:00,
2013-06-28 17:02:00,104.9,66.2,29.73,SSE,154,0.0,0.0,29,0.00,,,0.00,VWS V13.01,2013-06-28 22:02:00,
2013-06-28 17:07:00,106.1,66.3,29.73,SSE,168,0.0,1.0,28,0.00,,,0.00,VWS V13.01,2013-06-28 22:07:00,
2013-06-28 17:10:00,107.7,66.6,29.75,WSW,239,0.0,6.0,27,0.00,,,0.00,VWS V15.00,2013-06-28 22:10:00,
2013-06-28 17:12:00,106.2,65.3,29.73,SSE,155,0.0,0.0,27,0.00,,,0.00,VWS V13.01,2013-06-28 22:12:00,
2013-06-28 17:17:00,105.3,64.5,29.72,SE,141,0.0,5.0,27,0.00,,,0.00,VWS V13.01,2013-06-28 22:17:00,
2013-06-28 17:20:00,105.5,66.8,29.74,ESE,121,0.0,7.0,29,0.00,,,0.00,VWS V15.00,2013-06-28 22:20:00,
2013-06-28 17:22:00,105.3,65.6,29.72,SE,141,0.0,0.0,28,0.00,,,0.00,VWS V13.01,2013-06-28 22:22:00,
2013-06-28 17:27:00,105.9,66.1,29.72,SE,142,0.0,1.0,28,0.00,,,0.00,VWS V13.01,2013-06-28 22:27:00,
2013-06-28 17:30:00,104.1,66.5,29.74,SSE,159,3.0,8.0,30,0.00,,,0.00,VWS V15.00,2013-06-28 22:30:00,
2013-06-28 17:32:00,106.1,65.2,29.71,SE,142,0.0,0.0,27,0.00,,,0.00,VWS V13.01,2013-06-28 22:32:00,
2013-06-28 17:37:00,105.6,65.8,29.71,SE,134,0.0,0.0,28,0.00,,,0.00,VWS V13.01,2013-06-28 22:37:00,
2013-06-28 17:40:00,103.8,66.3,29.74,SSE,155,8.0,9.0,30,0.00,,,0.00,VWS V15.00,2013-06-28 22:40:00,
2013-06-28 17:42:00,105.4,65.7,29.71,SE,138,0.0,0.0,28,0.00,,,0.00,VWS V13.01,2013-06-28 22:42:00,
2013-06-28 17:47:00,105.0,64.3,29.71,SE,127,6.0,7.0,27,0.00,,,0.00,VWS V13.01,2013-06-28 22:47:00,
2013-06-28 17:50:00,104.1,66.5,29.73,SSE,159,0.0,8.0,30,0.00,,,0.00,VWS V15.00,2013-06-28 22:50:00,
2013-06-28 17:52:00,104.5,64.9,29.71,SE,127,0.0,0.0,28,0.00,,,0.00,VWS V13.01,2013-06-28 22:52:00,
2013-06-28 17:57:00,104.2,65.7,29.71,SE,134,0.0,3.0,29,0.00,,,0.00,VWS V13.01,2013-06-28 22:57:00,
2013-06-28 18:00:00,104.7,65.1,29.73,SSE,153,0.0,3.0,28,0.00,,,0.00,VWS V15.00,2013-06-28 23:00:00,
2013-06-28 18:02:00,104.2,64.7,29.71,SE,135,0.0,0.0,28,0.00,,,0.00,VWS V13.01,2013-06-28 23:02:00,
2013-06-28 18:03:00,104.2,64.7,29.71,SE,134,0.0,0.0,28,0.00,,,0.00,VWS V13.01,2013-06-28 23:03:00,
2013-06-28 18:08:00,104.7,66.1,29.71,SSE,168,0.0,3.0,29,0.00,,,0.00,VWS V13.01,2013-06-28 23:08:00,
2013-06-28 18:10:00,106.4,66.5,29.73,SSE,155,0.0,4.0,28,0.00,,,0.00,VWS V15.00,2013-06-28 23:10:00,
2013-06-28 18:13:00,104.5,64.9,29.71,South,180,0.0,0.0,28,0.00,,,0.00,VWS V13.01,2013-06-28 23:13:00,
2013-06-28 18:18:00,104.5,64.9,29.70,South,174,0.0,4.0,28,0.00,,,0.00,VWS V13.01,2013-06-28 23:18:00,
2013-06-28 18:20:00,105.1,65.4,29.72,SE,141,0.0,5.0,28,0.00,,,0.00,VWS V15.00,2013-06-28 23:20:00,
2013-06-28 18:23:00,104.0,65.5,29.70,South,174,0.0,0.0,29,0.00,,,0.00,VWS V13.01,2013-06-28 23:23:00,
2013-06-28 18:28:00,103.9,64.4,29.70,South,174,0.0,0.0,28,0.00,,,0.00,VWS V13.01,2013-06-28 23:28:00,
2013-06-28 18:30:00,106.2,66.3,29.71,SE,142,0.0,1.0,28,0.00,,,0.00,VWS V15.00,2013-06-28 23:30:00,
2013-06-28 18:33:00,103.7,65.2,29.70,South,169,0.0,3.0,29,0.00,,,0.00,VWS V13.01,2013-06-28 23:33:00,
2013-06-28 18:38:00,103.7,65.2,29.70,South,169,0.0,3.0,29,0.00,,,0.00,VWS V13.01,2013-06-28 23:38:00,
2013-06-28 18:40:00,105.4,64.6,29.71,SE,136,0.0,1.0,27,0.00,,,0.00,VWS V15.00,2013-06-28 23:40:00,
2013-06-28 18:43:00,103.7,64.2,29.70,SSE,168,0.0,0.0,28,0.00,,,0.00,VWS V13.01,2013-06-28 23:43:00,
2013-06-28 18:48:00,103.7,64.2,29.70,South,170,0.0,1.0,28,0.00,,,0.00,VWS V13.01,2013-06-28 23:48:00,
2013-06-28 18:50:00,104.5,64.9,29.71,SE,126,0.0,7.0,28,0.00,,,0.00,VWS V15.00,2013-06-28 23:50:00,
2013-06-28 18:53:00,103.7,65.2,29.70,South,188,0.0,6.0,29,0.00,,,0.00,VWS V13.01,2013-06-28 23:53:00,
2013-06-28 18:58:00,103.6,65.1,29.70,South,189,0.0,6.0,29,0.00,,,0.00,VWS V13.01,2013-06-28 23:58:00,
2013-06-28 19:00:00,104.3,64.7,29.71,SE,135,0.0,3.0,28,0.00,,,0.00,VWS V15.00,2013-06-29 00:00:00,
2013-06-28 19:03:00,103.6,66.1,29.69,South,189,0.0,0.0,30,0.00,,,0.00,VWS V13.01,2013-06-29 00:03:00,
2013-06-28 19:08:00,103.4,65.9,29.69,South,178,0.0,5.0,30,0.00,,,0.00,VWS V13.01,2013-06-29 00:08:00,
2013-06-28 19:10:00,104.6,65.0,29.71,South,180,0.0,5.0,28,0.00,,,0.00,VWS V15.00,2013-06-29 00:10:00,
2013-06-28 19:13:00,103.2,64.8,29.69,South,178,0.0,5.0,29,0.00,,,0.00,VWS V13.01,2013-06-29 00:13:00,
2013-06-28 19:18:00,102.8,64.5,29.69,South,178,0.0,5.0,29,0.00,,,0.00,VWS V13.01,2013-06-29 00:18:00,
2013-06-28 19:20:00,104.1,64.6,29.70,South,174,0.0,4.0,28,0.00,,,0.00,VWS V15.00,2013-06-29 00:20:00,
2013-06-28 19:23:00,102.6,65.3,29.69,South,178,0.0,0.0,30,0.00,,,0.00,VWS V13.01,2013-06-29 00:23:00,
2013-06-28 19:28:00,102.3,65.9,29.69,SSE,168,0.0,5.0,31,0.00,,,0.00,VWS V13.01,2013-06-29 00:28:00,
2013-06-28 19:30:00,103.8,64.3,29.70,South,171,3.0,3.0,28,0.00,,,0.00,VWS V15.00,2013-06-29 00:30:00,
2013-06-28 19:33:00,101.8,65.5,29.69,SSE,153,0.0,7.0,31,0.00,,,0.00,VWS V13.01,2013-06-29 00:33:00,
2013-06-28 19:38:00,101.3,66.0,29.69,SSE,147,0.0,7.0,32,0.00,,,0.00,VWS V13.01,2013-06-29 00:38:00,
2013-06-28 19:40:00,103.6,65.1,29.70,South,169,0.0,3.0,29,0.00,,,0.00,VWS V15.00,2013-06-29 00:40:00,
2013-06-28 19:43:00,100.9,66.5,29.69,SE,144,4.0,4.0,33,0.00,,,0.00,VWS V13.01,2013-06-29 00:43:00,
2013-06-28 19:48:00,100.5,66.2,29.69,SE,143,2.0,4.0,33,0.00,,,0.00,VWS V13.01,2013-06-29 00:48:00,
2013-06-28 19:50:00,103.7,64.2,29.70,South,169,0.0,1.0,28,0.00,,,0.00,VWS V15.00,2013-06-29 00:50:00,
2013-06-28 19:53:00,100.1,65.8,29.69,SSE,149,0.0,0.0,33,0.00,,,0.00,VWS V13.01,2013-06-29 00:53:00,
2013-06-28 19:58:00,99.9,66.5,29.69,SSE,149,0.0,3.0,34,0.00,,,0.00,VWS V13.01,2013-06-29 00:58:00,
2013-06-28 20:00:00,103.6,66.1,29.69,South,189,0.0,6.0,30,0.00,,,0.00,VWS V15.00,2013-06-29 01:00:00,
2013-06-28 20:03:00,99.6,66.3,29.69,SSE,152,0.0,0.0,34,0.00,,,0.00,VWS V13.01,2013-06-29 01:03:00,
2013-06-28 20:08:00,99.4,66.1,29.69,SSE,151,0.0,0.0,34,0.00,,,0.00,VWS V13.01,2013-06-29 01:08:00,
2013-06-28 20:10:00,103.3,65.9,29.69,South,178,0.0,5.0,30,0.00,,,0.00,VWS V15.00,2013-06-29 01:10:00,
2013-06-28 20:13:00,99.2,66.8,29.69,SSE,150,0.0,0.0,35,0.00,,,0.00,VWS V13.01,2013-06-29 01:13:00,
2013-06-28 20:18:00,99.0,68.2,29.70,SSE,150,0.0,0.0,37,0.00,,,0.00,VWS V13.01,2013-06-29 01:18:00,
2013-06-28 20:20:00,102.7,65.3,29.69,South,178,0.0,5.0,30,0.00,,,0.00,VWS V15.00,2013-06-29 01:20:00,
2013-06-28 20:23:00,98.8,68.0,29.70,SSE,150,0.0,0.0,37,0.00,,,0.00,VWS V13.01,2013-06-29 01:23:00,
2013-06-28 20:28:00,98.4,68.4,29.70,SSE,151,0.0,0.0,38,0.00,,,0.00,VWS V13.01,2013-06-29 01:28:00,
2013-06-28 20:30:00,102.0,66.6,29.69,SE,144,5.0,8.0,32,0.00,,,0.00,VWS V15.00,2013-06-29 01:30:00,
2013-06-28 20:33:00,98.0,68.1,29.70,SSE,151,0.0,0.0,38,0.00,,,0.00,VWS V13.01,2013-06-29 01:33:00,
2013-06-28 20:38:00,97.7,67.8,29.70,SSE,151,0.0,0.0,38,0.00,,,0.00,VWS V13.01,2013-06-29 01:38:00,
2013-06-28 20:40:00,101.0,66.6,29.69,SSE,147,0.0,7.0,33,0.00,,,0.00,VWS V15.00,2013-06-29 01:40:00,
2013-06-28 20:43:00,97.2,67.4,29.70,SSE,150,0.0,0.0,38,0.00,,,0.00,VWS V13.01,2013-06-29 01:43:00,
2013-06-28 20:48:00,96.9,67.9,29.70,SSE,150,0.0,0.0,39,0.00,,,0.00,VWS V13.01,2013-06-29 01:48:00,
2013-06-28 20:50:00,100.2,65.9,29.69,SSE,150,0.0,5.0,33,0.00,,,0.00,VWS V15.00,2013-06-29 01:50:00,
2013-06-28 20:53:00,96.6,67.6,29.70,SSE,150,0.0,0.0,39,0.00,,,0.00,VWS V13.01,2013-06-29 01:53:00,
2013-06-28 20:58:00,96.5,68.2,29.70,SSE,150,0.0,0.0,40,0.00,,,0.00,VWS V13.01,2013-06-29 01:58:00,
2013-06-28 21:00:00,99.7,66.4,29.69,SSE,152,0.0,3.0,34,0.00,,,0.00,VWS V15.00,2013-06-29 02:00:00,
2013-06-28 21:03:00,96.2,68.0,29.70,SSE,150,0.0,0.0,40,0.00,,,0.00,VWS V13.01,2013-06-29 02:03:00,
2013-06-28 21:08:00,96.0,68.5,29.70,SSE,150,0.0,0.0,41,0.00,,,0.00,VWS V13.01,2013-06-29 02:08:00,
2013-06-28 21:09:00,96.0,68.5,29.70,SSE,150,0.0,0.0,41,0.00,,,0.00,VWS V13.01,2013-06-29 02:09:00,
2013-06-28 21:10:00,99.2,65.9,29.69,SSE,151,0.0,0.0,34,0.00,,,0.00,VWS V15.00,2013-06-29 02:10:00,
2013-06-28 21:14:00,95.7,68.9,29.70,SSE,150,0.0,0.0,42,0.00,,,0.00,VWS V13.01,2013-06-29 02:14:00,
2013-06-28 21:19:00,95.1,68.4,29.70,SSE,150,0.0,0.0,42,0.00,,,0.00,VWS V13.01,2013-06-29 02:19:00,
2013-06-28 21:20:00,98.9,68.1,29.70,SSE,150,0.0,0.0,37,0.00,,,0.00,VWS V15.00,2013-06-29 02:20:00,
2013-06-28 21:24:00,94.8,68.2,29.70,SSE,150,0.0,0.0,42,0.00,,,0.00,VWS V13.01,2013-06-29 02:24:00,
2013-06-28 21:29:00,94.3,69.1,29.70,SSE,150,0.0,0.0,44,0.00,,,0.00,VWS V13.01,2013-06-29 02:29:00,
2013-06-28 21:30:00,98.2,68.3,29.70,SSE,151,0.0,0.0,38,0.00,,,0.00,VWS V15.00,2013-06-29 02:30:00,
2013-06-28 21:34:00,93.7,67.8,29.70,SSE,150,0.0,0.0,43,0.00,,,0.00,VWS V13.01,2013-06-29 02:34:00,
2013-06-28 21:39:00,93.3,68.2,29.70,SSE,150,0.0,0.0,44,0.00,,,0.00,VWS V13.01,2013-06-29 02:39:00,
2013-06-28 21:40:00,97.4,67.6,29.70,SSE,151,0.0,0.0,38,0.00,,,0.00,VWS V15.00,2013-06-29 02:40:00,
2013-06-28 21:44:00,93.0,67.9,29.70,SSE,150,0.0,0.0,44,0.00,,,0.00,VWS V13.01,2013-06-29 02:44:00,
2013-06-28 21:49:00,92.6,69.4,29.71,SSE,150,0.0,0.0,47,0.00,,,0.00,VWS V13.01,2013-06-29 02:49:00,
2013-06-28 21:50:00,96.7,67.7,29.70,SSE,150,0.0,0.0,39,0.00,,,0.00,VWS V15.00,2013-06-29 02:50:00,
2013-06-28 21:54:00,92.0,67.6,29.71,SSE,150,0.0,0.0,45,0.00,,,0.00,VWS V13.01,2013-06-29 02:54:00,
2013-06-28 21:59:00,91.7,66.1,29.71,SSE,150,0.0,0.0,43,0.00,,,0.00,VWS V13.01,2013-06-29 02:59:00,
2013-06-28 22:00:00,96.3,68.1,29.70,SSE,150,0.0,0.0,40,0.00,,,0.00,VWS V15.00,2013-06-29 03:00:00,
2013-06-28 22:04:00,91.5,65.2,29.71,SSE,150,0.0,0.0,42,0.00,,,0.00,VWS V13.01,2013-06-29 03:04:00,
2013-06-28 22:09:00,91.4,65.8,29.71,SSE,150,0.0,0.0,43,0.00,,,0.00,VWS V13.01,2013-06-29 03:09:00,
2013-06-28 22:10:00,95.9,69.1,29.70,SSE,150,0.0,0.0,42,0.00,,,0.00,VWS V15.00,2013-06-29 03:10:00,
2013-06-28 22:14:00,91.3,67.0,29.71,SSE,150,0.0,0.0,45,0.00,,,0.00,VWS V13.01,2013-06-29 03:14:00,
2013-06-28 22:19:00,91.1,66.8,29.71,SSE,150,0.0,0.0,45,0.00,,,0.00,VWS V13.01,2013-06-29 03:19:00,
2013-06-28 22:20:00,94.9,68.9,29.70,SSE,150,0.0,0.0,43,0.00,,,0.00,VWS V15.00,2013-06-29 03:20:00,
2013-06-28 22:24:00,91.0,66.7,29.71,SSE,150,0.0,0.0,45,0.00,,,0.00,VWS V13.01,2013-06-29 03:24:00,
2013-06-28 22:29:00,90.8,65.9,29.71,SSE,150,0.0,0.0,44,0.00,,,0.00,VWS V13.01,2013-06-29 03:29:00,
2013-06-28 22:30:00,94.0,68.8,29.70,SSE,150,0.0,0.0,44,0.00,,,0.00,VWS V15.00,2013-06-29 03:30:00,
2013-06-28 22:34:00,90.6,65.1,29.71,SSE,150,0.0,0.0,43,0.00,,,0.00,VWS V13.01,2013-06-29 03:34:00,
2013-06-28 22:39:00,90.6,65.1,29.71,SSE,150,0.0,0.0,43,0.00,,,0.00,VWS V13.01,2013-06-29 03:39:00,
2013-06-28 22:40:00,93.2,68.1,29.70,SSE,150,0.0,0.0,44,0.00,,,0.00,VWS V15.00,2013-06-29 03:40:00,
2013-06-28 22:44:00,90.5,65.6,29.71,SSE,150,0.0,0.0,44,0.00,,,0.00,VWS V13.01,2013-06-29 03:44:00,
2013-06-28 22:49:00,90.5,65.6,29.72,SSE,150,0.0,0.0,44,0.00,,,0.00,VWS V13.01,2013-06-29 03:49:00,
2013-06-28 22:50:00,92.3,67.9,29.71,SSE,150,0.0,0.0,45,0.00,,,0.00,VWS V15.00,2013-06-29 03:50:00,
2013-06-28 22:54:00,90.3,65.4,29.72,SSE,150,0.0,0.0,44,0.00,,,0.00,VWS V13.01,2013-06-29 03:54:00,
2013-06-28 22:59:00,90.1,65.3,29.72,SSE,150,0.0,0.0,44,0.00,,,0.00,VWS V13.01,2013-06-29 03:59:00,
2013-06-28 23:00:00,91.6,66.0,29.71,SSE,150,0.0,0.0,43,0.00,,,0.00,VWS V15.00,2013-06-29 04:00:00,
2013-06-28 23:01:00,90.1,65.3,29.72,SSE,150,0.0,0.0,44,0.00,,,0.00,VWS V13.01,2013-06-29 04:01:00,
2013-06-28 23:06:00,90.0,65.2,29.72,SSE,150,0.0,0.0,44,0.00,,,0.00,VWS V13.01,2013-06-29 04:06:00,
2013-06-28 23:10:00,91.4,66.4,29.71,SSE,150,0.0,0.0,44,0.00,,,0.00,VWS V15.00,2013-06-29 04:10:00,
2013-06-28 23:11:00,89.9,65.1,29.72,SSE,150,0.0,0.0,44,0.00,,,0.00,VWS V13.01,2013-06-29 04:11:00,
2013-06-28 23:16:00,89.7,65.6,29.72,SSE,150,0.0,0.0,45,0.00,,,0.00,VWS V13.01,2013-06-29 04:16:00,
2013-06-28 23:20:00,91.0,66.7,29.71,SSE,150,0.0,0.0,45,0.00,,,0.00,VWS V15.00,2013-06-29 04:20:00,
2013-06-28 23:21:00,89.5,65.4,29.72,SSE,150,0.0,0.0,45,0.00,,,0.00,VWS V13.01,2013-06-29 04:21:00,
2013-06-28 23:26:00,89.3,65.2,29.72,SSE,150,0.0,0.0,45,0.00,,,0.00,VWS V13.01,2013-06-29 04:26:00,
2013-06-28 23:30:00,90.7,65.8,29.71,SSE,150,0.0,0.0,44,0.00,,,0.00,VWS V15.00,2013-06-29 04:30:00,
2013-06-28 23:31:00,89.2,65.1,29.73,SSE,150,0.0,0.0,45,0.00,,,0.00,VWS V13.01,2013-06-29 04:31:00,
2013-06-28 23:36:00,89.2,65.1,29.73,SSE,150,0.0,0.0,45,0.00,,,0.00,VWS V13.01,2013-06-29 04:36:00,
2013-06-28 23:40:00,90.6,65.1,29.71,SSE,150,0.0,0.0,43,0.00,,,0.00,VWS V15.00,2013-06-29 04:40:00,
2013-06-28 23:41:00,89.1,65.6,29.73,SSE,150,0.0,0.0,46,0.00,,,0.00,VWS V13.01,2013-06-29 04:41:00,
2013-06-28 23:46:00,88.9,66.1,29.73,SSE,150,0.0,0.0,47,0.00,,,0.00,VWS V13.01,2013-06-29 04:46:00,
2013-06-28 23:50:00,90.4,65.5,29.72,SSE,150,0.0,0.0,44,0.00,,,0.00,VWS V15.00,2013-06-29 04:50:00,
2013-06-28 23:51:00,88.6,65.2,29.73,SSE,150,0.0,0.0,46,0.00,,,0.00,VWS V13.01,2013-06-29 04:51:00,
2013-06-28 23:56:00,88.3,64.9,29.73,SSE,150,0.0,0.0,46,0.00,,,0.00,VWS V13.01,2013-06-29 04:56:00,